Volver al catálogo

SL-8 DEB

ActivoPO
NORAD 29283·DEBRIS·🇷🇺 Russia

Lanzado Dec 17, 1981 desde Plesetsk Cosmodrome

Loading…

Próximos Pases (próximas 24 horas)

TLE

ActualizadoSource: Space-Track

Época: Sep 13, 2026, 12:44 UTC

1 29283U 81120M   26256.53111149 -.00000079  00000-0 -99174-3 0  9993
2 29283  82.9655 356.0150 0027825 305.4906  54.3559 12.07889931524035

Sigue SL-8 DEB en tiempo real con AllMySat

Download on the App Store